SCP
0 0 0 0 0 0 0 0 0 0 0 0 0 0 0 0 0 0 0 0 0 0 0 0 0 0 0 0 0 0 0 0 0 0 0 0 0 0 0 0 0 0 0 0 0 0 0 0 0
0 0 0 0 0 0 0 0 0 0 0 0 0 0 0 0 0 0 0 0 0 0 0 0 0 0 0 0 0 0 0 0 0 0 0 0 0 0 0 0 0 0 0 0 0 0 0 0 0
0 0 0 0 0 0 0 0 0 0 0 0 0 0 0 0 0 0 0 0 0 0 0 0 0 0 0 0 0 0 0 0 0 0 0 0 0 0 0 0 0 0 0 0 0 0 0 0 0
0 0 0 0 0 0 0 0 0 0 0 0 0 0 0 0 0 0 0 0 0 0 0 0 0 0 0 0 0 0 0 0 0 0 0 0 0 0 0 0 0 0 0 0 0 0 0 0 0
0 0 0 0 0 0 0 0 0 0 0 0 0 0 0 0 0 0 0 0 0 0 -0 0 0 0 0 0 0 0 0 0 0 0 0 0 0 0 0 0 0 0 0 0 0 0 0 0 0
0 0 0 0 0 0 0 0 0 0 0 0 0 0 0 0 0 0 0 0 0 0 -0 -0 0 0 0 0 0 0 0 0 0 0 0 0 0 0 0 0 0 0 0 0 0 0 0 0 0
0 0 0 0 0 0 0 0 0 0 0 0 0 0 0 0 0 0 0 0 0 -0 -0 -0 -0 -0 0 0 0 0 0 0 0 0 0 0 0 0 0 0 0 0 0 0 0 0 0 0 0
0 0 0 0 0 0 0 0 0 0 0 0 0 0 0 0 0 0 0 0 0 -0 -0 -0 -0 -0 -0 -0 0 0 0 0 0 0 0 0 0 0 0 0 0 0 0 0 0 0 0 0 0
0 0 0 0 0 0 0 0 0 0 0 0 0 0 0 0 0 0 0 0 0 0 -0 -0 -0 -0 -0 -0 0 0 0 0 0 0 0 0 0 0 0 0 0 0 0 0 0 0 0 0 0
0 0 0 0 0 0 0 0 0 0 0 0 0 0 0 0 0 0 0 0 0 0 0 0 -0 -0 -0 -0 0 0 0 0 0 0 0 0 0 0 0 0 0 0 0 0 0 0 0 0 0
0 0 0 0 0 0 0 0 0 0 0 0 0 0 0 0 0 0 0 0 0 0 0 0 0 0 0 0 0 0 0 0 0 0 0 0 0 0 0 0 0 0 0 0 0 0 0 0 0
0 0 0 0 0 0 0 0 0 0 0 0 0 0 0 0 0 0 0 0 0 0 0 0 0 0 0 0 0 0 0 0 0 0 0 0 0 0 0 0 0 0 0 0 0 0 0 0 0
0 0 0 0 0 0 0 0 0 0 0 0 0 0 0 0 0 0 0 0 0 0 0 0 0 0 0 0 0 0 0 0 0 0 0 0 0 0 0 0 0 0 0 0 0 0 0 0 0
0 0 0 0 0 0 0 0 0 0 0 0 0 0 0 0 0 0 0 0 0 0 0 0 0 0 0 0 0 0 0 0 0 0 0 0 0 0 0 0 0 0 0 0 0 0 0 0 0
0 0 0 0 0 0 0 0 0 0 0 0 0 1 1 1 0 0 0 0 0 0 0 0 0 0 0 0 0 0 0 0 0 0 0 0 0 0 0 0 0 0 0 0 0 0 0 0 0
0 0 0 0 0 0 0 0 0 0 0 0 1 1 1 1 1 0 0 0 0 0 0 0 0 0 0 0 0 0 0 0 0 0 0 0 0 0 0 0 0 0 0 0 0 0 0 0 0
0 0 0 0 0 0 0 0 0 0 0 1 1 1 1 1 1 1 1 1 1 1 0 0 0 0 0 0 0 0 0 0 0 0 0 0 0 0 0 0 0 0 0 0 0 0 0 0 0
0 0 0 0 0 0 0 0 0 0 0 1 1 1 1 1 1 1 1 1 1 1 1 1 0 0 0 0 0 0 0 0 0 0 0 0 0 0 0 0 0 0 0 0 0 0 0 0 0
0 0 0 0 0 0 0 0 0 0 0 0 1 1 1 1 1 1 1 1 1 1 1 1 1 0 0 0 0 0 0 0 0 0 0 0 0 0 0 0 0 0 0 0 0 0 0 0 0
0 0 0 0 0 0 0 0 0 0 0 0 1 1 1 1 1 1 1 1 1 1 1 1 1 0 0 0 0 0 0 0 0 0 0 0 0 0 0 0 0 0 0 0 0 0 0 0 0
0 0 0 0 0 0 0 0 0 0 0 0 0 1 1 1 1 1 1 1 1 1 1 1 1 0 0 0 0 0 0 0 0 0 0 0 0 0 0 0 0 0 0 0 0 0 0 0 0
0 0 0 0 0 0 0 0 0 0 0 0 0 1 1 1 1 1 1 1 1 1 1 1 1 0 0 0 0 0 0 0 0 0 0 0 0 0 0 0 0 0 0 0 0 0 0 0 0
0 0 0 0 0 0 0 0 0 0 0 0 0 1 1 1 1 1 1 1 1 1 1 1 1 0 0 0 0 0 0 0 0 0 0 0 0 0 0 0 0 0 0 0 0 0 0 0 0
0 0 0 0 0 0 0 0 0 0 0 0 0 1 1 1 1 1 1 1 1 1 1 1 1 0 0 0 0 0 0 0 0 0 0 0 0 0 0 0 0 0 0 0 0 0 0 0 0
0 0 0 0 0 0 0 0 0 0 0 0 0 1 1 1 1 1 1 1 1 1 1 1 1 0 0 0 0 0 0 0 0 0 0 0 0 0 0 0 0 0 0 0 0 0 0 0 0
0 0 0 0 0 0 0 0 0 0 0 0 1 1 1 1 1 1 1 1 1 1 1 1 1 1 0 0 0 0 0 0 0 0 0 0 0 0 0 0 0 0 0 0 0 0 0 0 0
0 0 0 0 0 0 0 0 0 0 0 0 1 1 1 1 1 1 1 1 1 1 1 1 1 1 0 0 0 0 0 0 0 0 0 0 0 0 0 0 0 0 0 0 0 0 0 0 0
0 0 0 0 0 0 0 0 0 0 0 1 1 1 1 1 1 1 1 1 1 1 1 1 1 1 0 0 0 0 0 0 0 0 0 0 0 0 0 0 0 0 0 0 0 0 0 0 0
0 0 0 0 0 0 0 0 0 0 0 1 1 1 1 1 1 1 1 1 1 1 1 1 1 1 1 0 0 0 0 0 0 0 0 0 0 0 0 0 0 0 0 0 0 0 0 0 0
0 0 0 0 0 0 0 0 0 0 0 1 1 1 1 1 1 1 1 1 1 1 1 1 1 1 1 1 0 0 0 0 0 0 0 0 0 0 0 0 0 0 0 0 0 0 0 0 0
Wind_Speed
4 4 3 1 5 6 8 7 10 10 8 9 12 11 11 9 7 9 4 10 11 7 6 9 12 12 13 13 13 13 14 14 15 15 15 15 15 16 16 16 17 17 16 16 16 16 16 15 16
3 3 1 4 6 6 6 7 12 13 13 13 14 14 12 10 10 11 6 9 10 8 6 8 12 12 12 12 12 13 13 14 14 14 14 14 15 15 15 15 15 15 15 15 15 15 15 14 14
3 1 3 4 5 6 7 9 14 15 12 10 8 8 7 8 9 7 9 12 9 7 6 8 13 12 12 12 12 12 13 13 13 14 14 14 14 14 15 15 14 14 14 14 14 14 13 13 12
2 2 4 6 8 6 9 11 15 15 11 10 10 8 6 7 7 11 14 13 11 7 6 8 13 12 12 12 11 12 12 12 12 13 13 13 13 14 14 13 13 13 13 13 12 12 11 11 10
2 4 6 7 8 8 11 14 13 12 8 11 12 11 7 6 15 17 15 13 12 7 5 7 13 12 12 12 11 11 11 11 12 12 12 12 12 13 12 12 12 12 11 11 10 9 9 9 8
3 4 6 7 9 8 9 13 16 17 16 14 13 10 5 9 14 14 13 12 11 9 7 7 12 12 11 11 11 10 10 10 11 11 11 11 11 11 11 11 11 11 10 9 9 8 7 7 6
4 5 6 9 10 9 9 11 14 15 14 10 10 8 5 8 11 13 12 11 10 9 7 5 5 7 10 11 10 10 10 10 10 10 10 10 10 10 10 10 9 9 8 7 7 6 5 5 5
5 6 6 7 10 8 8 8 11 14 11 12 8 8 7 9 11 12 11 9 8 7 6 5 4 4 4 5 9 9 9 9 9 9 9 9 9 9 9 8 7 8 7 6 5 4 3 3 3
5 7 6 8 9 8 11 13 9 10 11 6 5 8 11 13 14 13 10 7 7 7 5 5 5 4 4 4 6 7 8 8 7 6 7 6 3 3 4 6 7 6 5 4 3 2 2 1 2
7 6 7 8 10 11 13 14 9 9 11 9 10 10 11 12 13 13 11 9 8 8 6 5 6 5 4 4 4 2 3 3 2 2 3 2 2 1 3 5 6 6 5 3 2 2 1 1 1
6 7 7 9 11 12 12 10 8 12 10 13 15 13 11 11 10 10 10 9 9 9 8 7 6 5 5 3 3 2 1 2 2 3 3 2 2 1 1 1 2 2 2 1 1 1 1 1 1
7 6 8 9 10 12 11 9 8 9 11 13 13 13 11 11 9 9 9 8 8 8 7 7 6 5 4 4 3 2 2 2 2 2 3 2 2 2 2 1 1 1 1 1 1 1 1 2 2
9 5 7 10 12 12 12 10 10 9 13 13 12 11 11 11 9 7 8 8 8 7 6 6 6 6 5 4 2 3 2 2 2 2 3 3 3 3 2 1 1 2 1 2 2 2 2 2 2
6 7 8 10 11 12 15 10 9 11 14 13 12 11 11 11 10 8 8 8 7 7 6 6 6 5 5 3 3 2 2 3 2 2 3 4 3 3 2 2 2 2 2 2 2 2 2 2 1
6 7 5 6 7 8 13 7 9 14 14 13 12 11 11 10 11 11 10 9 9 8 7 6 6 5 4 4 3 2 2 3 2 2 2 3 3 3 3 2 2 2 2 2 1 2 1 1 1
5 5 2 2 5 6 10 7 9 14 14 12 11 12 10 9 10 10 10 9 9 8 7 6 6 5 4 3 2 2 2 2 2 2 2 2 3 3 2 2 2 2 1 1 2 1 1 1 1
3 2 3 3 4 6 7 6 9 12 13 12 12 11 11 9 8 8 10 10 9 9 7 6 5 5 4 3 2 2 2 2 2 2 1 2 2 3 2 2 1 1 1 1 2 1 1 1 1
4 3 2 5 5 5 6 5 10 11 12 13 12 11 11 11 10 9 9 9 8 7 7 6 5 5 4 2 2 1 1 1 1 2 2 2 2 2 2 1 1 1 1 0 1 1 1 1 1
5 4 3 4 5 5 6 7 10 9 10 12 11 11 11 11 9 9 9 9 8 7 6 6 5 4 3 2 2 1 1 1 1 2 2 2 2 2 2 1 1 1 1 1 1 1 1 1 1
4 4 2 1 4 5 6 5 8 10 13 14 15 14 12 9 8 9 8 8 8 7 7 6 6 5 4 3 2 2 2 1 1 1 1 2 2 2 2 2 2 1 1 1 1 1 1 1 1
1 5 5 4 2 4 6 1 3 6 5 7 11 12 12 14 13 11 10 9 8 8 7 7 5 5 4 3 2 1 2 1 1 0 0 1 2 2 1 2 2 2 2 1 2 2 2 1 1
3 6 6 5 5 1 4 2 6 6 5 7 10 10 12 12 12 11 11 10 10 9 7 6 6 5 4 3 3 3 2 2 2 2 1 1 1 1 1 1 2 2 1 1 2 2 2 2 1
6 5 4 5 5 2 1 4 6 4 7 10 11 12 12 13 13 13 12 11 10 9 8 6 5 4 3 3 4 3 2 2 1 1 1 0 0 0 1 1 1 1 1 1 1 1 1 2 2
3 4 6 5 5 1 4 4 5 7 13 11 11 13 13 13 12 11 10 9 8 8 7 6 5 4 3 3 3 4 4 3 2 1 1 0 1 1 1 1 1 1 1 1 1 1 1 1 2
6 7 5 5 4 4 4 2 8 10 10 12 13 13 13 13 13 11 11 10 9 9 8 7 6 4 3 3 3 3 3 3 3 2 2 1 0 1 1 1 1 1 1 1 1 1 1 1 1
4 11 9 5 4 5 3 4 8 6 6 8 11 11 11 12 12 12 12 11 11 10 9 8 7 5 4 4 3 3 3 2 2 2 2 2 1 1 1 1 1 1 1 2 1 1 1 2 1
4 4 9 8 3 0 4 4 6 4 6 7 9 10 11 11 12 12 11 11 10 10 10 9 8 6 5 4 3 2 2 2 2 1 1 1 1 1 1 2 2 3 3 2 2 2 2 2 2
7 7 7 6 5 2 3 3 4 3 6 7 9 10 10 9 9 10 10 10 9 9 9 8 8 7 5 5 4 3 2 2 2 2 2 2 2 2 2 2 3 3 3 3 3 3 3 3 3
2 3 6 5 7 7 3 7 8 11 10 10 11 12 13 12 12 11 10 10 9 8 9 8 8 6 5 5 4 3 3 2 3 3 3 3 3 3 3 3 4 4 4 3 4 3 3 4 4
6 7 8 6 4 5 5 9 6 10 10 10 10 10 11 11 11 11 11 10 9 9 9 9 8 7 6 6 5 4 4 3 3 3 3 4 4 3 3 3 4 4 4 4 4 4 4 4 4
Wind_Direction
193 181 160 97 58 64 83 89 93 82 64 60 75 82 82 69 95 121 151 134 131 124 116 110 107 103 99 97 94 91 89 89 91 92 92 92 93 96 97 97 97 97 97 97 96 97 99 101 104
190 183 106 60 80 85 84 97 92 98 113 103 85 84 80 76 91 115 131 136 131 126 120 117 113 107 103 100 97 95 93 93 94 96 97 98 97 97 98 99 100 100 99 99 99 98 99 101 104
188 173 80 69 91 116 115 107 103 105 103 96 92 71 70 100 110 123 142 138 126 120 119 123 116 111 108 104 100 98 97 96 97 99 101 101 101 101 100 100 101 101 101 101 100 100 101 102 103
131 67 52 80 94 109 121 120 114 108 87 82 90 75 72 104 117 132 138 135 126 123 124 128 121 117 114 110 106 103 100 99 100 101 102 103 102 102 103 103 103 103 103 103 102 102 102 100 100
88 80 66 83 96 102 111 117 113 103 93 94 96 102 90 93 120 132 138 136 131 131 129 128 126 123 120 116 112 109 106 105 105 104 105 105 105 104 105 106 106 107 107 106 105 103 102 101 99
64 76 85 98 99 101 109 113 107 105 111 109 107 106 102 121 130 139 138 136 136 136 134 131 131 129 126 123 120 116 114 112 111 111 111 110 109 108 108 110 110 110 111 111 108 104 100 98 95
118 103 117 119 111 110 116 120 118 125 126 125 123 105 120 138 141 141 138 135 135 137 135 133 135 131 133 131 127 125 122 118 116 117 118 119 118 117 116 116 117 116 116 115 113 109 102 94 89
140 105 101 109 116 118 115 105 124 130 119 134 127 122 150 157 140 133 132 131 133 139 142 141 135 129 129 135 137 135 133 130 126 126 126 128 127 126 127 126 127 127 127 126 120 114 104 87 75
103 88 120 136 128 125 113 100 101 106 120 133 106 127 149 143 132 128 128 127 138 145 151 153 152 150 151 156 148 143 143 144 139 135 136 127 110 117 131 143 144 143 144 144 143 136 111 61 40
96 117 155 150 138 135 126 119 119 109 107 107 111 121 136 135 134 137 144 149 155 160 167 164 164 167 170 164 141 150 155 152 151 159 145 134 145 176 160 166 162 162 166 174 182 179 190 29 352
106 135 139 127 130 128 125 122 115 120 128 144 145 148 143 138 138 143 150 153 159 164 168 168 171 169 171 156 153 164 166 165 175 179 174 161 159 163 155 165 173 178 187 195 216 272 288 284 285
101 124 128 132 128 125 128 127 123 135 152 155 151 149 144 144 149 149 151 153 152 155 161 160 161 159 159 151 162 165 169 175 176 180 172 156 146 150 169 183 192 192 202 197 220 247 262 266 263
109 120 118 129 129 127 121 124 124 132 142 146 144 141 146 150 152 150 149 144 142 143 148 150 148 145 145 143 163 159 176 184 177 167 164 155 154 164 171 188 193 197 192 186 193 223 250 257 259
135 124 122 125 122 127 122 122 117 145 147 150 151 152 155 156 153 149 148 144 144 143 147 146 143 145 141 136 138 148 165 168 161 161 169 153 157 162 164 180 192 200 200 194 195 207 226 244 241
99 96 89 123 118 126 113 109 144 156 153 155 160 161 160 160 157 161 164 156 154 154 152 150 150 147 141 139 143 138 154 156 158 167 175 160 157 162 165 177 200 208 200 189 192 206 216 237 236
73 82 105 221 133 146 117 151 170 162 158 161 165 166 165 166 169 168 165 158 158 156 157 163 156 150 151 150 142 131 147 150 156 162 170 165 166 166 159 169 209 213 196 188 193 192 182 235 226
38 131 180 203 183 152 121 160 179 171 164 166 171 171 169 169 174 172 167 161 161 159 158 159 151 158 165 159 146 136 141 153 163 166 176 177 167 162 154 172 213 212 186 196 209 177 173 202 228
212 188 184 188 192 142 130 163 168 176 173 175 176 175 173 173 180 175 165 160 156 155 151 151 153 161 158 145 124 108 111 145 166 176 186 182 173 163 154 178 216 179 141 197 198 188 185 189 203
182 161 181 198 170 133 144 157 174 180 180 179 179 179 179 180 179 168 161 156 151 151 150 155 154 165 154 141 147 148 170 187 191 200 190 185 181 163 155 176 187 163 168 212 199 166 169 222 142
140 129 167 242 153 134 151 171 188 186 188 189 184 183 181 175 166 166 162 158 158 162 164 163 165 168 168 166 169 170 167 179 183 194 189 190 178 173 172 181 182 184 182 203 209 165 164 239 151
170 171 186 181 103 82 107 48 216 209 197 192 193 186 180 177 173 172 169 167 164 169 174 169 168 169 172 164 135 106 77 62 62 54 245 231 185 176 172 162 168 178 176 198 219 195 178 205 247
241 213 168 157 123 196 133 181 255 212 210 202 198 188 184 180 175 173 172 171 173 176 173 164 165 167 169 154 147 153 160 176 198 193 206 241 198 187 177 169 165 176 179 196 218 186 177 167 203
215 200 144 152 133 100 75 140 262 188 207 213 200 192 185 182 178 177 177 176 174 170 168 165 160 161 161 154 159 158 160 179 185 157 155 206 303 248 199 185 178 185 189 201 215 180 160 165 175
173 70 46 54 72 65 233 155 248 207 206 203 193 187 182 179 175 176 174 165 163 162 161 161 157 159 154 150 150 155 160 161 149 136 147 210 281 299 284 180 171 187 181 187 188 164 144 157 163
98 90 42 9 22 256 258 173 240 230 210 190 182 183 180 174 172 170 165 162 163 162 163 163 157 156 154 150 150 158 163 163 166 170 172 184 222 258 257 196 172 175 179 154 139 114 112 130 138
169 135 150 176 201 266 311 235 259 244 203 178 171 170 168 171 172 171 170 168 167 166 164 162 159 158 155 153 152 150 150 152 157 169 170 188 201 223 217 135 98 76 81 85 77 77 88 86 94
162 166 161 136 154 138 289 290 317 47 112 142 153 157 168 171 171 169 168 168 166 164 166 164 161 160 161 158 148 141 142 142 139 135 134 144 160 124 80 79 72 66 72 75 79 75 67 73 73
164 154 100 112 139 202 285 261 228 198 166 165 162 166 167 163 160 163 165 165 166 165 162 159 160 165 161 156 158 151 141 133 128 114 94 85 74 71 74 77 76 70 65 65 73 69 60 66 53
162 124 114 122 148 150 213 263 224 194 180 176 180 172 164 165 166 166 167 162 158 153 153 155 157 155 155 155 146 136 130 124 111 108 104 96 83 73 70 75 75 70 65 69 75 70 66 67 54
171 174 145 147 196 156 162 260 259 191 182 176 175 169 165 166 165 165 160 156 157 160 161 159 159 157 159 153 142 136 127 115 106 98 93 96 91 81 83 79 75 69 65 68 80 77 66 66 61